Martinsburg, PA

3:10 PM EST on February 14, 2016 (GMT -0500)
Altoona-Blair County

Weather History for KAOO - March, 2014

Change the Weather History Date:

Sunday, March 16, 2014

  Actual Average Record
Temperature  
Mean Temperature 28 °F 37 °F  
Max Temperature 33 °F 46 °F 74 °F (2012)
Min Temperature 22 °F 28 °F 9 °F (1992)
Degree Days  
Heating Degree Days 37 28  
Month to date heating degree days 540 488  
Since 1 July heating degree days 5284 5043  
Cooling Degree Days 0 0  
Month to date cooling degree days 0 0  
Year to date cooling degree days 0 0  
Moisture  
Dew Point 14 °F    
Average Humidity 54    
Maximum Humidity 75    
Minimum Humidity 33    
Precipitation  
Precipitation 0.01 in - 0.94 in (1982)
Month to date precipitation 0.65  
Year to date precipitation 4.01  
Sea Level Pressure  
Sea Level Pressure 30.15 in    
Wind  
Wind Speed 8 mph (NNE)    
Max Wind Speed 16 mph    
Max Gust Speed 21 mph    
Visibility 9 miles    
Events Snow    
T = Trace of Precipitation, MM = Missing Value Source: NWS Daily Summary

Daily Weather History Graph

Daily Weather History Graph

Search for Another Location

Airport or City:

Trip Planner

Search our weather history database for the weather conditions in past years. The results will help you decide how hot, cold, wet, or windy it might be!

Date:

Astronomy

Mar. 16, 2014 Rise Set
Actual Time 7:23 AM EDT 7:21 PM EDT
Civil Twilight 6:56 AM EDT 7:48 PM EDT
Nautical Twilight 6:24 AM EDT 8:19 PM EDT
Astronomical Twilight 5:52 AM EDT 8:52 PM EDT
Moon 7:36 PM EDT (3/16) 7:05 AM EDT (3/16)
Length of Visible Light 12h 52m
Length of Day
11h 57m
Full, 100% of the Moon is Illuminated
Mar 16
Full
Mar 16
Full
Mar 23
Last Quarter
Mar 30
New
Apr 7
First Quarter

Hourly Weather History & Observations

Time (EDT) Temp. Windchill Dew Point Humidity Pressure Visibility Wind Dir Wind Speed Gust Speed Precip Events Conditions
12:53 AM 32.0 °F 24.8 °F 23.0 °F 69% 30.12 in 10.0 mi NW 8.1 mph - N/A   Partly Cloudy
1:53 AM 32.0 °F 23.0 °F 23.0 °F 69% 30.12 in 10.0 mi North 11.5 mph - N/A   Clear
2:53 AM 30.0 °F 26.5 °F 21.9 °F 72% 30.12 in 10.0 mi NW 3.5 mph - N/A   Partly Cloudy
3:53 AM 28.0 °F 22.8 °F 21.0 °F 75% 30.13 in 10.0 mi North 4.6 mph - N/A   Clear
4:53 AM 28.0 °F 24.2 °F 18.0 °F 66% 30.14 in 10.0 mi North 3.5 mph - N/A   Clear
5:53 AM 27.0 °F - 18.0 °F 69% 30.16 in 10.0 mi Calm Calm - N/A   Clear
6:53 AM 26.1 °F 18.4 °F 18.0 °F 71% 30.18 in 10.0 mi North 6.9 mph - N/A   Clear
7:53 AM 25.0 °F 18.1 °F 17.1 °F 72% 30.19 in 10.0 mi North 5.8 mph - N/A   Clear
8:53 AM 27.0 °F 16.7 °F 17.1 °F 66% 30.20 in 10.0 mi North 11.5 mph - N/A   Clear
9:53 AM 28.9 °F 19.8 °F 17.1 °F 61% 30.20 in 10.0 mi North 10.4 mph - N/A   Clear
10:53 AM 30.9 °F 19.8 °F 12.9 °F 47% 30.20 in 10.0 mi North 16.1 mph 20.7 mph N/A   Clear
11:53 AM 30.9 °F 26.2 °F 7.0 °F 37% 30.21 in 10.0 mi NNW 4.6 mph - N/A   Clear
12:53 PM 32.0 °F 23.0 °F 7.0 °F 35% 30.22 in 10.0 mi NNE 11.5 mph - N/A   Clear
1:53 PM 32.0 °F 22.5 °F 9.0 °F 38% 30.20 in 10.0 mi NNE 12.7 mph - N/A   Clear
2:53 PM 30.9 °F 24.3 °F 6.1 °F 35% 30.19 in 10.0 mi NE 6.9 mph - N/A   Clear
3:53 PM 30.0 °F 22.4 °F 8.1 °F 40% 30.20 in 10.0 mi NE 8.1 mph - N/A   Mostly Cloudy
4:53 PM 28.9 °F 21.1 °F 6.1 °F 38% 30.17 in 10.0 mi ENE 8.1 mph - N/A   Overcast
5:53 PM 28.9 °F 21.1 °F 7.0 °F 40% 30.16 in 10.0 mi NE 8.1 mph - N/A   Overcast
6:53 PM 28.9 °F 21.9 °F 7.0 °F 40% 30.15 in 10.0 mi NE 6.9 mph - N/A   Overcast
7:53 PM 28.0 °F 20.8 °F 9.0 °F 45% 30.14 in 10.0 mi NE 6.9 mph - N/A   Overcast
8:53 PM 28.0 °F 19.3 °F 8.1 °F 43% 30.12 in 10.0 mi NE 9.2 mph - N/A   Overcast
9:53 PM 27.0 °F 18.0 °F 9.0 °F 47% 30.10 in 10.0 mi NE 9.2 mph - N/A   Overcast
10:53 PM 26.1 °F 17.6 °F 12.0 °F 55% 30.11 in 9.0 mi ENE 8.1 mph - 0.00 in   Overcast
11:16 PM 25.0 °F 14.2 °F 15.1 °F 66% 30.05 in 2.5 mi NE 11.5 mph - 0.00 in Snow Light Snow
11:37 PM 24.1 °F 14.4 °F 17.1 °F 75% 30.04 in 1.5 mi East 9.2 mph - 0.00 in Snow Light Snow
11:53 PM 23.0 °F 11.7 °F 18.0 °F 81% 30.10 in 1.2 mi ENE 11.5 mph - 0.00 in Snow Light Snow